Home   Weather   Lohmar   Past weeks

Flag for Germany Past Weather in Lohmar, North Rhine-Westphalia, Germany — Yesterday and Last 2 Weeks

Now
25 °F

Sunny.


Feels Like: 25 °F
Forecast: 17 / 28 °F
Wind: 2 mph from North

Location: Koeln / Bonn

Current Time: Jan 21, 2017 at 9:57:27 am

Latest Report: Jan 21, 2017 at 9:20 am


Visibility: 10 mi

Pressure: 30.42 "Hg

Humidity: 86%

Dew Point: 21 °F

Location of LohmarLocation

Past Weather in Lohmar — Graph

°F

Lohmar Temperature Yesterday

Maximum temperature yesterday: 41 °F (at 1:50 pm)
Minimum temperature yesterday: 14 °F (at 7:20 am)
Average temperature yesterday: 27 °F

High & Low Weather Summary for the Past Weeks

 TemperatureHumidityPressure
High46 °F (Jan 11, 4:20 pm)100% (Jan 7, 4:20 pm)30.74 "Hg (Jan 7, 4:20 pm)
Low12 °F (Jan 18, 7:20 am)42% (Jan 20, 1:20 pm)28.97 "Hg (Jan 13, 1:20 am)
Average31 °F86%30.22 "Hg
* Reported Jan 6 8:20 am — Jan 21 8:20 am, Lohmar, Weather by CustomWeather, © 2017

Note: Actual official high and low records may vary slightly from our data, if they occured in-between our weather recording intervals... More about our weather records

Advertising

Lohmar Weather History for the Previous 24 Hours

Scroll right to see more
 ConditionsComfort  
Time TempWeatherWind HumidityBarometerVisibility
8:20 am
Sat, Jan 21
23 °FClear.8 mph93%30.42 "Hg10 mi
7:50 am23 °FClear.5 mph93%30.42 "Hg10 mi
7:20 am23 °FClear.5 mph93%30.42 "Hg10 mi
6:50 am19 °FClear.6 mph93%30.42 "Hg10 mi
6:20 am25 °FClear.2 mph93%30.42 "Hg10 mi
5:50 am25 °FPassing clouds.3 mph86%30.42 "HgN/A
5:20 am25 °FClear.5 mph93%30.45 "Hg10 mi
4:50 am23 °FClear.2 mph100%30.45 "Hg10 mi
4:20 am23 °FClear.2 mph100%30.45 "Hg10 mi
3:50 am25 °FClear.2 mph93%30.45 "Hg10 mi
3:20 am25 °FClear.1 mph93%30.45 "Hg10 mi
2:50 am25 °FClear.2 mph100%30.45 "Hg10 mi
2:20 am23 °FClear.5 mph93%30.45 "Hg10 mi
1:50 am23 °FClear.3 mph93%30.45 "Hg10 mi
1:20 am23 °FClear.2 mph93%30.45 "Hg10 mi
12:50 am25 °FClear.1 mph93%30.45 "Hg10 mi
12:20 am25 °FClear.2 mph86%30.48 "Hg10 mi
11:50 pm
Fri, Jan 20
28 °FClear.1 mph93%30.48 "Hg10 mi
11:20 pm30 °FClear.6 mph86%30.48 "Hg10 mi
10:50 pm27 °FClear.2 mph93%30.48 "Hg10 mi
10:20 pm30 °FClear.2 mph86%30.48 "Hg10 mi
9:50 pm28 °FClear.1 mph93%30.48 "Hg10 mi
9:20 pm30 °FClear.2 mph80%30.48 "Hg10 mi
8:50 pm30 °FClear.1 mph86%30.48 "Hg10 mi
8:20 pm32 °FClear.1 mph80%30.48 "Hg10 mi
7:50 pm34 °FClear.3 mph75%30.48 "Hg10 mi
7:20 pm32 °FPassing clouds.3 mph80%30.48 "HgN/A
6:50 pm32 °FClear.2 mph64%30.48 "Hg10 mi
6:20 pm30 °FClear.2 mph69%30.48 "Hg10 mi
5:50 pm34 °FClear.No wind60%30.48 "Hg10 mi
5:20 pm36 °FClear.1 mph56%30.48 "Hg10 mi
4:50 pm37 °FSunny.1 mph52%30.48 "Hg10 mi
4:20 pm39 °FSunny.3 mph52%30.51 "Hg10 mi
3:50 pm39 °FSunny.2 mph48%30.51 "Hg10 mi
3:20 pm39 °FSunny.3 mph48%30.51 "Hg10 mi
2:50 pm41 °FPassing clouds.5 mph42%30.51 "HgN/A
2:20 pm41 °FPassing clouds.3 mph42%30.51 "HgN/A
1:50 pm41 °FPassing clouds.5 mph45%30.51 "HgN/A
1:20 pm39 °FSunny.1 mph42%30.54 "Hg10 mi
12:50 pm37 °FSunny.2 mph52%30.54 "Hg10 mi
12:20 pm34 °FPassing clouds.3 mph51%30.54 "HgN/A
11:50 am32 °FPassing clouds.3 mph55%30.57 "HgN/A
11:20 am30 °FPassing clouds.5 mph55%30.57 "HgN/A
10:50 am28 °FPassing clouds.3 mph64%30.57 "HgN/A
10:20 am25 °FSunny.6 mph69%30.57 "Hg10 mi
9:50 am23 °FSunny.5 mph74%30.57 "Hg10 mi
9:20 am21 °FSunny.2 mph74%30.57 "Hg10 mi
Weather by CustomWeather, © 2017

See weather overviewHow to use our weather pages